Regional Weather Roundup
Issued by NWS Green Bay, WI

Home | Current Version | Previous Version | Text Only | Print | Product List | Glossary On
Versions: 1 2 3 4 5 6 7 8 9 10 11 12 13 14 15 16 17 18 19 20 21 22 23 24 25 26 27 28 29 30 31 32 33 34 35 36 37 38 39 40 41 42 43 44 45 46 47 48 49 50
000
ASUS43 KGRB 032211
RWRGRB

NORTH-CENTRAL AND NORTHEAST WISCONSIN REGIONAL WEATHER ROUNDUP
NATIONAL WEATHER SERVICE GREEN BAY WI
400 PM CST SAT DEC 03 2016

WIZ005-009-010>012-018-019-032300-
NORTH CENTRAL WISCONSIN

CITY           SKY/WX    TMP DP  RH WIND       PRES   REMARKS
IRONWOOD       CLOUDY    30  24  78 S3        30.22F
MANITOWISH WTR CLOUDY    28  22  79 SE3       30.21R
ARBOR VITAE    CLOUDY    32  26  79 CALM      30.21S
EAGLE RIVER    CLOUDY    28  20  69 CALM      30.21S
LAND O LAKES   CLOUDY    29  23  76 CALM      30.22S
RHINELANDER    CLOUDY    28  21  75 VRB3      30.23R
PHILLIPS       CLOUDY    28  23  84 S3        30.22S
ANTIGO         CLOUDY    27  21  79 CALM      30.24S
TOMAHAWK       CLOUDY    28  20  72 CALM      30.23F
MERRILL        CLOUDY    29  20  71 CALM      30.25S
$$

WIZ013-073-032300-
NORTHEAST WISCONSIN

CITY           SKY/WX    TMP DP  RH WIND       PRES   REMARKS
IRON MOUNTAIN  CLOUDY    32  26  78 CALM      30.23F
MARINETTE      CLOUDY    34  26  72 CALM      30.28F
OCONTO         CLOUDY    32  22  68 SW3       30.28F
$$

WIZ017-030-035>037-045-032300-
CENTRAL WISCONSIN

CITY           SKY/WX    TMP DP  RH WIND       PRES   REMARKS
MEDFORD        CLOUDY    28  20  72 S3        30.22F
WAUSAU         CLOUDY    29  20  69 W5        30.23F
MOSINEE        CLOUDY    28  23  80 CALM      30.26S
MARSHFIELD     CLOUDY    29  20  69 W3        30.24F
WISC RAPIDS    CLOUDY    30  21  69 W3        30.28F
STEVENS POINT  CLOUDY    28  21  73 SW3       30.27F
WAUPACA        CLOUDY    33  24  69 CALM      30.29S
SHAWANO        CLOUDY    33  22  65 W3        30.28F
CLINTONVILLE   CLOUDY    32  23  69 CALM      30.28F
WAUTOMA        CLOUDY    30  22  72 NW3       30.29S
$$

WIZ038-039-048-051-032300-
FOX VALLEY

CITY           SKY/WX    TMP DP  RH WIND       PRES   REMARKS
NWS GREEN BAY  CLOUDY    33  24  69 W7        30.29S
APPLETON       CLOUDY    30  21  69 VRB3      30.26S
OSHKOSH        CLOUDY    31  23  72 SW7       30.29S
FOND DU LAC    CLOUDY    31  20  63 W5        30.30R
$$

WIZ022-050-052-032300-
EAST CENTRAL WISCONSIN

CITY           SKY/WX    TMP DP  RH WIND       PRES   REMARKS
EPHRAIM        CLOUDY    34  29  83 CALM      30.26F
WASHINGTON ISL CLOUDY    36  29  78 W7        30.26F
STURGEON BAY   CLOUDY    32  24  72 SW9       30.28F
MANITOWOC      CLOUDY    33  22  63 MISG      30.30S
SHEBOYGAN      CLOUDY    32  22  66 W3        30.30S
$$

LMZ563-521-522-541>543-032300-
LAKESHORE

STATION/POSITION TIME  TEMP    WIND        PRES    VSBY  WAVE
                       AIR SEA DIR/SP/G                  HT/PER
                 (UTC) (F)     (DEG/KT/KT) (MB)    (MI)  (FT/S)
SHEBOYGAN LKSHOR 2200   33     230/  7/  9 1026.7S
KEWAUNEE LKSHORE 2142   32     230/  5/  7 1025.3F
ALGOMA MARINA    2106          260/  8/  9   N/A
NORTHPORT PIER   2140   36     260/  1/  4 1024.7F
SISTER BAY LKSHO 2108   37     230/  9/ 11   N/A
CHAMBERS ISLAND  2140   35     240/  4/  7 1024.4F
MENOMINEE LKSHOR 2142   34     230/  6/  7 1024.4F
$$



USA.gov is the U.S. government's official web portal to all federal, state and local government web resources and services.